[[{"header":{"parameterUnit":"m.s-1","parameterCategory":1,"la1":30.2991,"la2":30.254,"lo1":-89.0895,"lo2":-89.0444,"dy":0.0017,"dx":0.0017,"nx":28,"ny":28,"refTime":"2024-10-10T21:00:00:Z","depth":0,"parameterNumber":2,"parameterNumberName":"U-component_of_WINDS"},"data":[0,0,0,0,0,0,0,0,0,0,0,0,0,0,0,0,0,0,0,0,0,0,0,0,0,0,0,0,0,0,0,0,0,0,0,0,0,0,0,0,0,0,0,0,0,0,0,0,0,0,0,0,0,0,0,0,0,0,-2.7977,-2.7977,0,-2.7971,-2.7971,-2.7971,-2.7887,-2.7885,-2.7883,-2.7881,-2.7879,-2.788,-2.7882,0,0,0,0,0,0,0,0,0,0,0,0,0,-2.7918,-2.792,-2.7977,-2.7977,-2.7976,-2.7971,-2.7971,-2.7971,-2.7888,-2.7885,-2.7882,-2.788,-2.7878,-2.788,-2.7883,0,0,0,0,0,0,0,0,0,0,0,0,0,-2.7932,-2.792,-2.7977,-2.7934,-2.793,-2.7971,-2.7971,-2.7971,-2.7888,-2.7885,-2.7882,-2.7879,-2.7877,-2.788,-2.7883,-2.7965,0,0,-2.7892,-2.7893,0,0,0,0,0,0,0,0,-2.7931,-2.7934,-2.794,-2.7937,-2.7933,-2.7927,-2.795,-2.7969,-2.7889,-2.7904,-2.7881,-2.7877,-2.7897,-2.7898,-2.7905,-2.7965,-2.7965,-2.7892,-2.7894,-2.7895,-2.7896,0,0,0,0,0,0,0,-2.793,-2.7934,-2.7975,-2.7941,-2.7936,-2.7917,-2.7915,-2.7953,-2.7919,-2.7903,-2.7897,-2.7897,-2.7895,-2.7902,-2.7904,-2.7965,-2.7892,-2.7895,-2.7896,-2.7897,-2.8096,-2.8099,0,0,0,0,0,0,-2.7935,-2.7933,-2.7975,-2.7974,-2.7924,-2.792,-2.7918,-2.7932,-2.7918,-2.7913,-2.79,-2.7893,-2.7899,-2.7901,-2.7904,-2.8001,-2.7895,-2.7898,-2.7899,-2.8092,-2.8097,-2.81,0,0,0,0,0,0,-2.7934,-2.7939,-2.7975,-2.7952,-2.7955,-2.7925,-2.7941,-2.7933,-2.7941,-2.7916,-2.791,-2.7913,-2.7896,-2.7899,-2.7951,-2.8,-2.7899,-2.7902,-2.8088,-2.8094,-2.8099,-2.8196,0,0,0,0,0,0,-2.7932,-2.7939,-2.7969,-2.7953,-2.7957,-2.8021,-2.7943,-2.7936,-2.7945,-2.7937,-2.7927,-2.7922,-2.7894,-2.7947,-2.7954,-2.8002,-2.7904,-2.8084,-2.8091,-2.8097,-2.8188,-2.8203,-2.8217,0,0,0,0,0,-2.7931,-2.7997,-2.7971,-2.7977,-2.7993,-2.8024,-2.8026,-2.7991,-2.795,-2.798,-2.7965,-2.7923,-2.7993,-2.7953,-2.796,-2.801,-2.808,-2.8089,-2.8096,-2.8181,-2.82,-2.8216,0,0,0,0,0,0,-2.8019,-2.7994,-2.7965,-2.8028,-2.8029,-2.801,-2.8047,-2.8012,-2.8026,-2.8017,-2.7974,-2.7973,-2.8032,-2.8025,-2.7981,-2.809,-2.803,-2.8039,-2.8092,-2.811,-2.8124,-2.8125,-2.7906,0,0,0,0,0,-2.8046,-2.8072,-2.8049,-2.8107,-2.8109,-2.8078,-2.809,-2.8063,-2.8063,-2.8063,-2.8051,-2.8054,-2.8077,-2.8093,-2.8112,-2.8186,-2.8185,-2.8224,-2.8239,-2.8251,-2.826,-2.8302,-2.832,-2.8127,-2.8126,-2.8126,0,0,-2.8102,-2.8091,-2.811,-2.8124,-2.8122,-2.8152,-2.8079,-2.8113,-2.8135,-2.8069,-2.8117,-2.8109,-2.8109,-2.8173,-2.82,-2.817,-2.8313,-2.8261,-2.8271,-2.8273,-2.8312,-2.833,-2.8346,-2.8132,-2.8131,-2.813,0,0,-2.8219,-2.8212,-2.8261,-2.826,-2.8257,-2.8237,-2.8249,-2.8236,-2.8228,-2.8275,-2.8227,-2.8254,-2.8293,-2.8296,-2.8302,-2.8423,-2.8386,-2.8431,-2.8507,-2.8548,-2.8563,-2.8576,-2.8622,-2.8638,-2.844,-2.844,-2.844,0,-2.8289,-2.833,-2.829,-2.8328,-2.8337,-2.8278,-2.8328,-2.8329,-2.8334,-2.8342,-2.8307,-2.8357,-2.8352,-2.8418,-2.8447,-2.8454,-2.8468,-2.8432,-2.8564,-2.8577,-2.8589,-2.8631,-2.8648,-2.8446,-2.8445,-2.8444,-2.8444,0,-2.8417,-2.8447,-2.8487,-2.8492,-2.8505,-2.8549,-2.8518,-2.8536,-2.8509,-2.8493,-2.8544,-2.8536,-2.8555,-2.8568,-2.8541,-2.863,-2.8611,-2.8571,-2.851,-2.8613,-2.8653,-2.8669,-2.8454,-2.8452,-2.845,-2.8449,0,0,-2.8589,-2.8573,-2.8589,-2.8592,-2.8585,-2.8609,-2.8651,-2.8668,-2.8686,-2.8691,-2.8727,-2.8763,-2.8726,-2.8733,-2.8707,-2.8743,-2.8842,-2.8698,-2.8697,-2.8727,-2.8943,-2.8974,-2.8994,-2.8817,-2.882,-2.8822,-2.8943,0,-2.8704,-2.8774,-2.874,-2.8815,-2.8844,-2.8789,-2.8826,-2.8827,-2.8814,-2.8838,-2.8823,-2.885,-2.8798,-2.8803,-2.8836,-2.8823,-2.8885,-2.8813,-2.8852,-2.8854,-2.8855,-2.9014,-2.9047,-2.9162,-2.8958,-2.8961,-2.8963,0,-2.8846,-2.8858,-2.8936,-2.8926,-2.8937,-2.8971,-2.8985,-2.9007,-2.9009,-2.8997,-2.9007,-2.8973,-2.9015,-2.8954,-2.9014,-2.8966,-2.898,-2.8976,-2.898,-2.8983,-2.8915,-2.9024,-2.9197,-2.9215,-2.8986,-2.8984,-2.8983,0,-2.8967,-2.9002,-2.9053,-2.9057,-2.9047,-2.9072,-2.907,-2.9067,-2.9081,-2.9094,-2.9103,-2.9121,-2.9131,-2.9147,-2.912,-2.9077,-2.9185,-2.912,-2.9178,-2.9179,-2.9204,-2.9203,-2.9384,-2.9211,-2.921,-2.921,-2.921,0,-2.9099,-2.9149,-2.9107,-2.9139,-2.9195,-2.9157,-2.9213,-2.9204,-2.9204,-2.9235,-2.9188,-2.9219,-2.918,-2.9207,-2.9186,-2.924,-2.9245,-2.9238,-2.9232,-2.9243,-2.9245,-2.9253,-2.9245,-2.9214,-2.9213,-2.9213,-2.9212,0,-2.9243,-2.9216,-2.9269,-2.9256,-2.9254,-2.9296,-2.9285,-2.9315,-2.9299,-2.9339,-2.9346,-2.9321,-2.9351,-2.9325,-2.9354,-2.934,-2.9413,-2.9395,-2.9413,-2.9408,-2.9468,-2.9464,-2.9663,-2.9688,-2.9496,-2.9498,-2.95,0,-2.9329,-2.9367,-2.9357,-2.9374,-2.9374,-2.9402,-2.9416,-2.938,-2.9397,-2.9403,-2.9433,-2.9458,-2.9477,-2.9528,-2.9514,-2.9537,-2.952,-2.9588,-2.9523,-2.9534,-2.9523,-2.9522,-2.9527,-2.9602,-2.9604,-2.9606,-2.9607,0,-2.9487,-2.9472,-2.9493,-2.951,-2.9528,-2.954,-2.9548,-2.9565,-2.9529,-2.9551,-2.958,-2.9595,-2.9625,-2.9652,-2.967,-2.9669,-2.9634,-2.9628,-2.9643,-2.9655,-2.9665,-2.9663,-2.9451,-2.9623,-2.9622,-2.9621,-2.962,-2.9619,-2.9606,-2.9637,-2.9636,-2.9662,-2.9665,-2.9674,-2.9703,-2.9691,-2.9714,-2.9735,-2.9713,-2.9751,-2.9753,-2.9774,-2.9778,-2.9807,-2.9779,-2.98,-2.9806,-2.9812,-2.9822,-2.9659,-2.981,-2.981,-2.9809,-2.9809,-2.9809,0,-2.9762,-2.9759,-2.9783,-2.9797,-2.9818,-2.9781,-2.9789,-2.981,-2.9842,-2.9848,-2.9867,-2.9903,-2.993,-2.9919,-2.9943,-2.9969,-2.9954,-2.9977,-2.9975,-2.9976,-2.9845,-2.983,-2.9989,-2.9989,-2.9989,-2.9989,-2.9989,-2.9989,-2.9846,-2.9899,-2.9885,-2.9939,-2.9936,-2.9971,-2.998,-2.9989,-2.9993,-3.0035,-3.0057,-3.0049,-3.0049,-3.0073,-3.0097,-3.0093,-3.0105,-3.0134,-3.0125,-3.0003,-2.9985,-2.9968,-2.9954,-3.0137,-3.0137,-3.0254,-3.0255,-3.0256]},{"header":{"parameterUnit":"m.s-1","parameterCategory":1,"la1":30.2991,"la2":30.254,"lo1":-89.0895,"lo2":-89.0444,"dy":0.0017,"dx":0.0017,"nx":28,"ny":28,"refTime":"2024-10-10T21:00:00:Z","depth":0,"parameterNumber":3,"parameterNumberName":"V-component_of_WINDS"},"data":[0,0,0,0,0,0,0,0,0,0,0,0,0,0,0,0,0,0,0,0,0,0,0,0,0,0,0,0,0,0,0,0,0,0,0,0,0,0,0,0,0,0,0,0,0,0,0,0,0,0,0,0,0,0,0,0,0,0,-0.4466,-0.4466,0,-0.4486,-0.4486,-0.4486,-0.4478,-0.4477,-0.4477,-0.4477,-0.45,-0.4501,-0.4502,0,0,0,0,0,0,0,0,0,0,0,0,0,-0.4424,-0.4425,-0.4466,-0.4466,-0.4467,-0.4486,-0.4486,-0.4486,-0.4478,-0.4477,-0.4477,-0.4476,-0.4499,-0.45,-0.4502,0,0,0,0,0,0,0,0,0,0,0,0,0,-0.4443,-0.4426,-0.4466,-0.4465,-0.4465,-0.4486,-0.4486,-0.4486,-0.4478,-0.4477,-0.4477,-0.4476,-0.4499,-0.45,-0.4502,-0.4526,0,0,-0.4507,-0.4507,0,0,0,0,0,0,0,0,-0.4442,-0.4445,-0.4465,-0.4465,-0.4465,-0.4479,-0.448,-0.45,-0.4478,-0.4473,-0.4477,-0.4476,-0.4493,-0.4495,-0.4501,-0.4527,-0.4528,-0.4507,-0.4508,-0.4509,-0.4509,0,0,0,0,0,0,0,-0.4441,-0.4444,-0.4474,-0.4465,-0.4465,-0.4464,-0.4466,-0.4483,-0.4487,-0.4474,-0.4473,-0.4475,-0.4493,-0.4499,-0.4501,-0.4528,-0.4507,-0.4508,-0.4509,-0.451,-0.4577,-0.4578,0,0,0,0,0,0,-0.4439,-0.4443,-0.4473,-0.4475,-0.4451,-0.4465,-0.4468,-0.4475,-0.4487,-0.4488,-0.4476,-0.4475,-0.4497,-0.4499,-0.4502,-0.4533,-0.4509,-0.451,-0.4511,-0.4577,-0.4578,-0.4579,0,0,0,0,0,0,-0.4438,-0.4442,-0.4473,-0.4459,-0.4462,-0.4467,-0.4475,-0.4476,-0.4482,-0.4489,-0.449,-0.4481,-0.4496,-0.45,-0.452,-0.4533,-0.4511,-0.4512,-0.4576,-0.4577,-0.4578,-0.4593,0,0,0,0,0,0,-0.4437,-0.4442,-0.445,-0.4459,-0.4463,-0.449,-0.4476,-0.4477,-0.4484,-0.4483,-0.4494,-0.4495,-0.4496,-0.4518,-0.4522,-0.4535,-0.4513,-0.4575,-0.4576,-0.4578,-0.4591,-0.4595,-0.4597,0,0,0,0,0,-0.4436,-0.4454,-0.4451,-0.4454,-0.4474,-0.449,-0.4493,-0.4493,-0.4485,-0.4494,-0.4499,-0.4495,-0.4531,-0.452,-0.4524,-0.4538,-0.4574,-0.4576,-0.4578,-0.459,-0.4594,-0.4597,0,0,0,0,0,0,-0.4448,-0.4455,-0.4452,-0.4473,-0.4481,-0.4489,-0.4501,-0.4497,-0.4508,-0.4507,-0.4507,-0.451,-0.4532,-0.4537,-0.4525,-0.4563,-0.4551,-0.4554,-0.4559,-0.4563,-0.4566,-0.4565,-0.4515,0,0,0,0,0,-0.4453,-0.4465,-0.4471,-0.4489,-0.4493,-0.4496,-0.4503,-0.4503,-0.4512,-0.4515,-0.4521,-0.4531,-0.4545,-0.4554,-0.4567,-0.4591,-0.4595,-0.4603,-0.4606,-0.4608,-0.4612,-0.4627,-0.4631,-0.4585,-0.4585,-0.4585,0,0,-0.4463,-0.4469,-0.4477,-0.4492,-0.4498,-0.4512,-0.4499,-0.4514,-0.4525,-0.4518,-0.4538,-0.4543,-0.4553,-0.4577,-0.4587,-0.4582,-0.4625,-0.4611,-0.4613,-0.4615,-0.4629,-0.4634,-0.4638,-0.4586,-0.4586,-0.4586,0,0,-0.4491,-0.4495,-0.4512,-0.4518,-0.4527,-0.4529,-0.4533,-0.4541,-0.4544,-0.4564,-0.456,-0.4573,-0.4596,-0.4604,-0.4611,-0.4641,-0.4639,-0.4646,-0.4662,-0.4677,-0.4681,-0.4684,-0.4697,-0.4701,-0.4648,-0.4648,-0.4648,0,-0.4503,-0.4523,-0.4521,-0.4536,-0.4544,-0.4537,-0.4555,-0.4561,-0.4574,-0.458,-0.4573,-0.4603,-0.4609,-0.4635,-0.4643,-0.4648,-0.4654,-0.4645,-0.468,-0.4683,-0.4686,-0.4699,-0.4703,-0.4649,-0.4649,-0.4649,-0.4649,0,-0.4539,-0.4552,-0.4565,-0.4577,-0.4586,-0.4602,-0.4604,-0.4613,-0.4611,-0.4614,-0.4635,-0.4643,-0.4658,-0.4663,-0.4662,-0.469,-0.4686,-0.4679,-0.4668,-0.4692,-0.4704,-0.4708,-0.4651,-0.465,-0.465,-0.465,0,0,-0.4576,-0.4586,-0.4591,-0.4597,-0.4607,-0.4618,-0.4634,-0.4648,-0.4657,-0.4666,-0.4681,-0.4701,-0.4695,-0.4703,-0.4703,-0.4715,-0.4741,-0.4707,-0.4708,-0.4715,-0.4775,-0.4781,-0.4787,-0.4738,-0.4739,-0.474,-0.4774,0,-0.4605,-0.4633,-0.4632,-0.4659,-0.4672,-0.4666,-0.4681,-0.4689,-0.4692,-0.4705,-0.4708,-0.4723,-0.4713,-0.4718,-0.473,-0.4736,-0.4754,-0.4733,-0.4755,-0.4756,-0.4754,-0.4792,-0.4799,-0.4831,-0.4779,-0.4779,-0.478,0,-0.4643,-0.4654,-0.4682,-0.469,-0.4696,-0.4709,-0.4722,-0.4734,-0.4743,-0.4745,-0.4754,-0.4751,-0.477,-0.4756,-0.4782,-0.4768,-0.4776,-0.478,-0.4782,-0.4786,-0.4771,-0.48,-0.4841,-0.4847,-0.4787,-0.4786,-0.4786,0,-0.467,-0.4691,-0.4711,-0.4716,-0.4725,-0.4735,-0.474,-0.4748,-0.4757,-0.4769,-0.4775,-0.4788,-0.4796,-0.4808,-0.481,-0.4799,-0.4836,-0.4822,-0.484,-0.484,-0.485,-0.485,-0.4896,-0.4852,-0.4852,-0.4851,-0.4851,0,-0.4704,-0.4723,-0.4723,-0.4735,-0.4756,-0.4754,-0.4775,-0.4779,-0.4786,-0.4801,-0.4795,-0.4809,-0.481,-0.4824,-0.4825,-0.4848,-0.4851,-0.4854,-0.4855,-0.4856,-0.4856,-0.4864,-0.4862,-0.4853,-0.4852,-0.4852,-0.4852,0,-0.4739,-0.4739,-0.4761,-0.4768,-0.477,-0.4785,-0.4792,-0.4805,-0.4807,-0.4825,-0.4829,-0.4833,-0.485,-0.4852,-0.4872,-0.4873,-0.4901,-0.4898,-0.4898,-0.4898,-0.4916,-0.4916,-0.4971,-0.4979,-0.4927,-0.4928,-0.4928,0,-0.4762,-0.4775,-0.4784,-0.4793,-0.4798,-0.4812,-0.4821,-0.4819,-0.4829,-0.4841,-0.4853,-0.4869,-0.4882,-0.4909,-0.4914,-0.493,-0.4929,-0.4947,-0.4931,-0.4932,-0.4932,-0.4932,-0.4934,-0.4951,-0.4951,-0.4952,-0.4952,0,-0.4803,-0.4803,-0.4815,-0.4828,-0.4838,-0.4849,-0.4858,-0.4866,-0.4866,-0.4877,-0.4894,-0.4903,-0.4923,-0.494,-0.4955,-0.4961,-0.4958,-0.4957,-0.4962,-0.4965,-0.4965,-0.4968,-0.4909,-0.4956,-0.4956,-0.4955,-0.4955,-0.4955,-0.4834,-0.4847,-0.4855,-0.487,-0.4876,-0.4885,-0.4898,-0.4901,-0.4915,-0.4931,-0.4929,-0.4948,-0.4958,-0.4978,-0.4985,-0.5001,-0.4995,-0.5002,-0.5004,-0.5007,-0.501,-0.496,-0.5003,-0.5003,-0.5003,-0.5003,-0.5003,0,-0.4878,-0.4883,-0.4896,-0.4909,-0.4921,-0.4914,-0.4924,-0.4935,-0.4952,-0.4961,-0.4973,-0.4993,-0.5009,-0.5015,-0.5032,-0.5043,-0.5042,-0.5048,-0.5048,-0.505,-0.5013,-0.5008,-0.5048,-0.5048,-0.5048,-0.5048,-0.5048,-0.5048,-0.4902,-0.4924,-0.4924,-0.495,-0.4954,-0.4972,-0.4979,-0.4988,-0.4995,-0.5018,-0.5031,-0.5034,-0.5043,-0.5059,-0.5074,-0.5076,-0.5083,-0.509,-0.5092,-0.5057,-0.5053,-0.5048,-0.5044,-0.5091,-0.5091,-0.5128,-0.5128,-0.5129]}]]